| time (UTC) | temp F | wind direction | speed knots | gust knots | rain 1hr in | rain 24hr in | rain mn in | humidity % | barometer mb |
| 20260510183028 | 72 | 298 | 6.1 | 13.0 | 0.00 | 0.00 | 0.00 | 31 | 1022.1 |
| 20260510182735 | 72 | 281 | 7.8 | 13.0 | 0.00 | 0.00 | 0.00 | 30 | 1022.8 |
| 20260510182247 | 72 | 328 | 7.0 | 13.9 | 0.00 | 0.00 | 0.00 | 33 | 1022.9 |
| 20260510181731 | 71 | 275 | 7.0 | 13.9 | 0.00 | 0.00 | 0.00 | 31 | 1022.9 |
| 20260510181551 | 72 | 309 | 7.0 | 13.9 | 0.00 | 0.00 | 0.00 | 31 | 1022.1 |
| 20260510181238 | 72 | 314 | 8.7 | 15.6 | 0.00 | 0.00 | 0.00 | 31 | 1023.0 |
| 20260510180748 | 72 | 297 | 7.8 | 15.6 | 0.00 | 0.00 | 0.00 | 32 | 1023.0 |
| 20260510180231 | 72 | 315 | 7.0 | 13.0 | 0.00 | 0.00 | 0.00 | 33 | 1023.0 |
| 20260510180046 | 72 | 294 | 8.7 | 13.0 | 0.00 | 0.00 | 0.00 | 30 | 1022.3 |
| 20260510175745 | 72 | 315 | 5.2 | 12.2 | 0.00 | 0.00 | 0.00 | 32 | 1023.0 |
| 20260510175226 | 70 | 11 | 6.1 | 12.2 | 0.00 | 0.00 | 0.00 | 31 | 1023.0 |
| 20260510174737 | 70 | 271 | 7.0 | 13.9 | 0.00 | 0.00 | 0.00 | 33 | 1023.0 |
| 20260510174533 | 70 | 251 | 7.0 | 13.9 | 0.00 | 0.00 | 0.00 | 33 | 1022.3 |
| 20260510174222 | 70 | 299 | 9.6 | 15.6 | 0.00 | 0.00 | 0.00 | 31 | 1023.0 |
| 20260510173748 | 70 | 273 | 7.8 | 15.6 | 0.00 | 0.00 | 0.00 | 33 | 1023.0 |
| 20260510173239 | 70 | 5 | 6.1 | 15.6 | 0.00 | 0.00 | 0.00 | 29 | 1023.0 |
| 20260510173021 | 70 | 318 | 4.3 | 15.6 | 0.00 | 0.00 | 0.00 | 32 | 1022.2 |
| 20260510172752 | 70 | 355 | 7.0 | 15.6 | 0.00 | 0.00 | 0.00 | 27 | 1023.0 |
| 20260510172244 | 70 | 11 | 9.6 | 14.8 | 0.00 | 0.00 | 0.00 | 30 | 1023.0 |
| 20260510171727 | 70 | 301 | 5.2 | 11.3 | 0.00 | 0.00 | 0.00 | 32 | 1023.2 |
| 20260510171505 | 70 | 289 | 7.0 | 10.4 | 0.00 | 0.00 | 0.00 | 30 | 1022.5 |
| 20260510171301 | 69 | 256 | 5.2 | 8.7 | 0.00 | 0.00 | 0.00 | 32 | 1023.3 |
| 20260510170723 | 69 | 251 | 3.5 | 13.0 | 0.00 | 0.00 | 0.00 | 32 | 1023.4 |
| 20260510170228 | 69 | 276 | 8.7 | 13.0 | 0.00 | 0.00 | 0.00 | 33 | 1023.4 |
| 20260510170045 | 68 | 288 | 5.2 | 13.0 | 0.00 | 0.00 | 0.00 | 32 | 1022.7 |
| 20260510165740 | 69 | 252 | 2.6 | 7.0 | 0.00 | 0.00 | 0.00 | 34 | 1023.5 |
| 20260510165222 | 69 | 303 | 3.5 | 8.7 | 0.00 | 0.00 | 0.00 | 34 | 1023.6 |
| 20260510164733 | 68 | 275 | 2.6 | 8.7 | 0.00 | 0.00 | 0.00 | 35 | 1023.6 |
| 20260510164553 | 68 | 304 | 6.1 | 8.7 | 0.00 | 0.00 | 0.00 | 33 | 1022.9 |
| 20260510164247 | 69 | 271 | 7.0 | 8.7 | 0.00 | 0.00 | 0.00 | 34 | 1023.7 |
| 20260510163730 | 68 | 261 | 5.2 | 8.7 | 0.00 | 0.00 | 0.00 | 36 | 1023.7 |
| 20260510163300 | 67 | 201 | 3.5 | 6.1 | 0.00 | 0.00 | 0.00 | 34 | 1023.6 |
| 20260510163027 | 67 | 248 | 3.5 | 7.8 | 0.00 | 0.00 | 0.00 | 41 | 1022.9 |
| 20260510162724 | 67 | 241 | 2.6 | 7.8 | 0.00 | 0.00 | 0.00 | 36 | 1023.6 |
| 20260510162231 | 67 | 254 | 4.3 | 7.8 | 0.00 | 0.00 | 0.00 | 35 | 1023.6 |
| 20260510161740 | 66 | 228 | 1.7 | 7.8 | 0.00 | 0.00 | 0.00 | 34 | 1023.6 |
| 20260510161536 | 66 | 217 | 3.5 | 7.8 | 0.00 | 0.00 | 0.00 | 36 | 1022.8 |
| 20260510161225 | 66 | 194 | 4.3 | 7.8 | 0.00 | 0.00 | 0.00 | 32 | 1023.6 |
| 20260510160755 | 67 | 226 | 4.3 | 7.0 | 0.00 | 0.00 | 0.00 | 35 | 1023.5 |
| 20260510160247 | 67 | 215 | 2.6 | 7.0 | 0.00 | 0.00 | 0.00 | 36 | 1023.5 |
| 20260510160057 | 66 | 245 | 0.9 | 7.0 | 0.00 | 0.00 | 0.00 | 39 | 1022.8 |
| 20260510155738 | 67 | 249 | 2.6 | 7.0 | 0.00 | 0.00 | 0.00 | 36 | 1023.5 |
| 20260510155220 | 64 | 219 | 1.7 | 7.0 | 0.00 | 0.00 | 0.00 | 32 | 1023.5 |
| 20260510154728 | 65 | 223 | 3.5 | 7.0 | 0.00 | 0.00 | 0.00 | 35 | 1023.5 |
| 20260510154620 | 65 | 244 | 1.7 | 7.0 | 0.00 | 0.00 | 0.00 | 36 | 1022.8 |
| 20260510154300 | 66 | 224 | 2.6 | 7.0 | 0.00 | 0.00 | 0.00 | 35 | 1023.5 |
| 20260510153748 | 66 | 221 | 2.6 | 7.8 | 0.00 | 0.00 | 0.00 | 37 | 1023.6 |
| 20260510153232 | 64 | 192 | 5.2 | 7.8 | 0.00 | 0.00 | 0.00 | 35 | 1023.6 |
| 20260510153044 | 64 | 152 | 2.6 | 7.8 | 0.00 | 0.00 | 0.00 | 36 | 1022.8 |
| 20260510152802 | 63 | 148 | 1.7 | 7.8 | 0.00 | 0.00 | 0.00 | 38 | 1023.5 |
| 20260510152223 | 64 | 171 | 1.7 | 7.0 | 0.00 | 0.00 | 0.00 | 37 | 1023.5 |
| 20260510151730 | 64 | 173 | 3.5 | 7.0 | 0.00 | 0.00 | 0.00 | 34 | 1023.5 |
| 20260510151517 | 63 | 163 | 4.3 | 7.0 | 0.00 | 0.00 | 0.00 | 41 | 1022.8 |
| 20260510151244 | 63 | 210 | 2.6 | 7.0 | 0.00 | 0.00 | 0.00 | 44 | 1023.5 |
| 20260510150725 | 64 | 213 | 3.5 | 7.0 | 0.00 | 0.00 | 0.00 | 40 | 1023.5 |
| 20260510150257 | 63 | 226 | 2.6 | 6.1 | 0.00 | 0.00 | 0.00 | 39 | 1023.5 |
| 20260510150120 | 63 | 228 | 2.6 | 6.1 | 0.00 | 0.00 | 0.00 | 41 | 1022.8 |
| 20260510145743 | 63 | 169 | 3.5 | 6.1 | 0.00 | 0.00 | 0.00 | 39 | 1023.5 |
| 20260510145228 | 63 | 173 | 3.5 | 5.2 | 0.00 | 0.00 | 0.00 | 37 | 1023.5 |
| 20260510144738 | 62 | 173 | 3.5 | 5.2 | 0.00 | 0.00 | 0.00 | 39 | 1023.4 |
| 20260510144609 | 61 | 186 | 2.6 | 5.2 | 0.00 | 0.00 | 0.00 | 38 | 1022.7 |
| 20260510144222 | 61 | 198 | 1.7 | 5.2 | 0.00 | 0.00 | 0.00 | 43 | 1023.4 |
| 20260510143726 | 62 | 213 | 2.6 | 7.0 | 0.00 | 0.00 | 0.00 | 36 | 1023.3 |
| 20260510143238 | 61 | 160 | 4.3 | 7.0 | 0.00 | 0.00 | 0.00 | 36 | 1023.3 |
| 20260510143007 | 61 | 190 | 2.6 | 5.2 | 0.00 | 0.00 | 0.00 | 39 | 1022.5 |
| 20260510142721 | 61 | 145 | 2.6 | 5.2 | 0.00 | 0.00 | 0.00 | 43 | 1023.2 |
| 20260510142252 | 60 | 154 | 1.7 | 6.1 | 0.00 | 0.00 | 0.00 | 43 | 1023.1 |
| 20260510141742 | 59 | 136 | 4.3 | 5.2 | 0.00 | 0.00 | 0.00 | 41 | 1023.1 |
| 20260510141545 | 59 | 170 | 3.5 | 6.1 | 0.00 | 0.00 | 0.00 | 42 | 1022.3 |
| 20260510141228 | 58 | 240 | 1.7 | 5.2 | 0.00 | 0.00 | 0.00 | 41 | 1023.0 |
| 20260510140738 | 59 | 207 | 3.5 | 5.2 | 0.00 | 0.00 | 0.00 | 43 | 1022.9 |
| 20260510140247 | 58 | 151 | 2.6 | 7.0 | 0.00 | 0.00 | 0.00 | 42 | 1022.8 |
| 20260510140021 | 58 | 151 | 1.7 | 7.0 | 0.00 | 0.00 | 0.00 | 40 | 1022.0 |
| 20260510135757 | 58 | 151 | 3.5 | 7.0 | 0.00 | 0.00 | 0.00 | 46 | 1022.8 |
| 20260510135248 | 58 | 171 | 1.7 | 4.3 | 0.00 | 0.00 | 0.00 | 44 | 1022.9 |
| 20260510134733 | 58 | 171 | 1.7 | 4.3 | 0.00 | 0.00 | 0.00 | 48 | 1022.8 |
| 20260510134505 | 57 | 171 | 2.6 | 3.5 | 0.00 | 0.00 | 0.00 | 43 | 1022.0 |
| 20260510134248 | 58 | 171 | 2.6 | 4.3 | 0.00 | 0.00 | 0.00 | 44 | 1022.8 |
| 20260510133730 | 57 | 171 | 0.9 | 3.5 | 0.00 | 0.00 | 0.00 | 47 | 1022.8 |
| 20260510133243 | 57 | 171 | 0.9 | 2.6 | 0.00 | 0.00 | 0.00 | 46 | 1022.8 |
| 20260510133012 | 57 | 171 | 0.0 | 2.6 | 0.00 | 0.00 | 0.00 | 47 | 1022.0 |
| 20260510132731 | 57 | 171 | 0.0 | 2.6 | 0.00 | 0.00 | 0.00 | 45 | 1022.7 |
| 20260510132243 | 55 | 171 | 0.0 | 1.7 | 0.00 | 0.00 | 0.00 | 51 | 1022.7 |
| 20260510131736 | 55 | 171 | 0.0 | 1.7 | 0.00 | 0.00 | 0.00 | 49 | 1022.7 |
| 20260510131553 | 55 | 171 | 0.0 | 1.7 | 0.00 | 0.00 | 0.00 | 51 | 1022.0 |
| 20260510131310 | 55 | 171 | 0.9 | 1.7 | 0.00 | 0.00 | 0.00 | 43 | 1022.8 |
| 20260510130730 | 55 | 171 | 0.9 | 1.7 | 0.00 | 0.00 | 0.00 | 46 | 1022.6 |
| 20260510130241 | 54 | 171 | 0.0 | 0.9 | 0.00 | 0.00 | 0.00 | 51 | 1022.5 |
| 20260510130027 | 53 | 171 | 0.0 | 0.0 | 0.00 | 0.00 | 0.00 | 49 | 1021.7 |
| 20260510125725 | 54 | 171 | 0.0 | 0.0 | 0.00 | 0.00 | 0.00 | 50 | 1022.4 |
| 20260510125234 | 54 | 171 | 0.0 | 0.9 | 0.00 | 0.00 | 0.00 | 52 | 1022.4 |
| 20260510124744 | 53 | 171 | 0.0 | 1.7 | 0.00 | 0.00 | 0.00 | 55 | 1022.3 |
| 20260510124521 | 53 | 171 | 0.0 | 1.7 | 0.00 | 0.00 | 0.00 | 56 | 1021.6 |
| 20260510124236 | 53 | 171 | 0.9 | 2.6 | 0.00 | 0.00 | 0.00 | 57 | 1022.3 |
| 20260510123748 | 52 | 171 | 0.9 | 2.6 | 0.00 | 0.00 | 0.00 | 57 | 1022.2 |
| 20260510123230 | 52 | 171 | 1.7 | 3.5 | 0.00 | 0.00 | 0.00 | 56 | 1022.2 |
| 20260510123025 | 51 | 171 | 1.7 | 3.5 | 0.00 | 0.00 | 0.00 | 55 | 1021.4 |
| 20260510122743 | 51 | 171 | 1.7 | 3.5 | 0.00 | 0.00 | 0.00 | 57 | 1022.2 |
| 20260510122226 | 50 | 171 | 0.0 | 0.0 | 0.00 | 0.00 | 0.00 | 59 | 1022.2 |
| 20260510121733 | 49 | 171 | 0.0 | 1.7 | 0.00 | 0.00 | 0.00 | 58 | 1022.2 |
| 20260510121531 | 49 | 171 | 0.0 | 1.7 | 0.00 | 0.00 | 0.00 | 59 | 1021.4 |
| 20260510121246 | 49 | 171 | 0.9 | 1.7 | 0.00 | 0.00 | 0.00 | 59 | 1022.0 |
| 20260510120729 | 48 | 171 | 0.9 | 1.7 | 0.00 | 0.00 | 0.00 | 58 | 1022.0 |
| 20260510120241 | 48 | 171 | 0.0 | 1.7 | 0.00 | 0.00 | 0.00 | 59 | 1022.0 |
| 20260510120031 | 48 | 171 | 0.0 | 1.7 | 0.00 | 0.00 | 0.00 | 59 | 1021.3 |
| 20260510115725 | 48 | 171 | 0.9 | 1.7 | 0.00 | 0.00 | 0.00 | 58 | 1021.9 |
| 20260510115257 | 48 | 171 | 0.9 | 1.7 | 0.00 | 0.00 | 0.00 | 58 | 1021.9 |
| 20260510114749 | 47 | 171 | 0.9 | 1.7 | 0.00 | 0.00 | 0.00 | 58 | 1021.7 |
| 20260510114518 | 47 | 171 | 0.9 | 1.7 | 0.00 | 0.00 | 0.00 | 58 | 1021.0 |
| 20260510114234 | 47 | 171 | 0.9 | 1.7 | 0.00 | 0.00 | 0.00 | 58 | 1021.7 |
| 20260510113738 | 47 | 171 | 0.9 | 1.7 | 0.00 | 0.00 | 0.00 | 58 | 1021.8 |
| 20260510113250 | 47 | 171 | 0.9 | 1.7 | 0.00 | 0.00 | 0.00 | 58 | 1021.8 |
| 20260510113025 | 47 | 171 | 0.0 | 0.9 | 0.00 | 0.00 | 0.00 | 58 | 1021.1 |
| 20260510112734 | 47 | 171 | 0.0 | 0.0 | 0.00 | 0.00 | 0.00 | 58 | 1021.8 |
| 20260510112246 | 47 | 171 | 0.0 | 2.6 | 0.00 | 0.00 | 0.00 | 58 | 1021.7 |
| 20260510111729 | 47 | 171 | 0.0 | 2.6 | 0.00 | 0.00 | 0.00 | 59 | 1021.9 |
| 20260510111540 | 47 | 171 | 1.7 | 2.6 | 0.00 | 0.00 | 0.00 | 58 | 1021.2 |
| 20260510111241 | 47 | 327 | 0.0 | 0.0 | 0.00 | 0.00 | 0.00 | 59 | 1021.8 |
| 20260510110723 | 47 | 327 | 0.0 | 0.0 | 0.00 | 0.00 | 0.00 | 58 | 1021.7 |
| 20260510110233 | 47 | 327 | 0.0 | 0.0 | 0.00 | 0.00 | 0.00 | 59 | 1021.7 |
| 20260510110032 | 46 | 327 | 0.0 | 0.0 | 0.00 | 0.00 | 0.00 | 58 | 1020.9 |
| 20260510105757 | 47 | 327 | 0.0 | 0.0 | 0.00 | 0.00 | 0.00 | 57 | 1021.6 |
| 20260510105248 | 47 | 327 | 0.0 | 2.6 | 0.00 | 0.00 | 0.00 | 57 | 1021.6 |
| 20260510104730 | 47 | 327 | 0.9 | 3.5 | 0.00 | 0.00 | 0.00 | 57 | 1021.5 |
| 20260510104514 | 46 | 327 | 0.9 | 4.3 | 0.00 | 0.00 | 0.00 | 57 | 1020.8 |
| 20260510104304 | 46 | 327 | 2.6 | 4.3 | 0.00 | 0.00 | 0.00 | 58 | 1021.6 |
| 20260510103726 | 47 | 303 | 3.5 | 4.3 | 0.00 | 0.00 | 0.00 | 59 | 1021.5 |
| 20260510103237 | 47 | 297 | 2.6 | 4.3 | 0.00 | 0.00 | 0.00 | 59 | 1021.5 |
| 20260510103054 | 46 | 286 | 1.7 | 3.5 | 0.00 | 0.00 | 0.00 | 59 | 1020.8 |
| 20260510102745 | 46 | 275 | 2.6 | 3.5 | 0.00 | 0.00 | 0.00 | 59 | 1021.5 |
| 20260510102227 | 46 | 284 | 2.6 | 3.5 | 0.00 | 0.00 | 0.00 | 57 | 1021.3 |
| 20260510101740 | 47 | 300 | 3.5 | 3.5 | 0.00 | 0.00 | 0.00 | 56 | 1021.2 |
| 20260510101603 | 46 | 298 | 2.6 | 3.5 | 0.00 | 0.00 | 0.00 | 56 | 1020.5 |
| 20260510101255 | 47 | 285 | 1.7 | 2.6 | 0.00 | 0.00 | 0.00 | 54 | 1021.3 |
| 20260510100804 | 47 | 355 | 1.7 | 2.6 | 0.00 | 0.00 | 0.00 | 55 | 1021.3 |
| 20260510100225 | 47 | 355 | 1.7 | 2.6 | 0.00 | 0.00 | 0.00 | 57 | 1021.2 |
| 20260510100018 | 46 | 355 | 0.9 | 3.5 | 0.00 | 0.00 | 0.00 | 58 | 1020.3 |
| 20260510095736 | 47 | 355 | 1.7 | 3.5 | 0.00 | 0.00 | 0.00 | 53 | 1020.9 |
| 20260510095242 | 47 | 355 | 2.6 | 3.5 | 0.00 | 0.00 | 0.00 | 52 | 1020.7 |
| 20260510094726 | 47 | 355 | 2.6 | 4.3 | 0.00 | 0.00 | 0.00 | 51 | 1020.8 |
| 20260510094520 | 47 | 355 | 2.6 | 4.3 | 0.00 | 0.00 | 0.00 | 51 | 1019.9 |
| 20260510094237 | 47 | 355 | 3.5 | 4.3 | 0.00 | 0.00 | 0.00 | 51 | 1020.5 |
| 20260510093748 | 48 | 360 | 3.5 | 4.3 | 0.00 | 0.00 | 0.00 | 50 | 1020.4 |
| 20260510093230 | 48 | 5 | 3.5 | 4.3 | 0.00 | 0.00 | 0.00 | 50 | 1020.4 |
| 20260510093024 | 47 | 5 | 2.6 | 4.3 | 0.00 | 0.00 | 0.00 | 49 | 1019.6 |
| 20260510092743 | 48 | 19 | 2.6 | 3.5 | 0.00 | 0.00 | 0.00 | 49 | 1020.4 |
| 20260510092235 | 48 | 34 | 2.6 | 3.5 | 0.00 | 0.00 | 0.00 | 49 | 1020.4 |
| 20260510091747 | 48 | 40 | 1.7 | 3.5 | 0.00 | 0.00 | 0.00 | 49 | 1020.4 |
| 20260510091509 | 47 | 40 | 1.7 | 4.3 | 0.00 | 0.00 | 0.00 | 49 | 1019.5 |
| 20260510091227 | 48 | 32 | 2.6 | 5.2 | 0.00 | 0.00 | 0.00 | 50 | 1020.3 |
| 20260510090737 | 48 | 32 | 3.5 | 7.0 | 0.00 | 0.00 | 0.00 | 49 | 1020.2 |
| 20260510090222 | 48 | 22 | 3.5 | 7.0 | 0.00 | 0.00 | 0.00 | 48 | 1020.0 |
| 20260510090008 | 47 | 45 | 4.3 | 7.0 | 0.00 | 0.00 | 0.00 | 48 | 1019.1 |
| 20260510085755 | 48 | 355 | 4.3 | 7.0 | 0.00 | 0.00 | 0.00 | 48 | 1019.9 |
| 20260510085246 | 48 | 24 | 3.5 | 5.2 | 0.00 | 0.00 | 0.00 | 47 | 1020.0 |
| 20260510084727 | 48 | 24 | 3.5 | 5.2 | 0.00 | 0.00 | 0.00 | 47 | 1020.0 |
| 20260510084558 | 48 | 32 | 2.6 | 4.3 | 0.00 | 0.00 | 0.00 | 47 | 1019.2 |
| 20260510084241 | 48 | 32 | 2.6 | 3.5 | 0.00 | 0.00 | 0.00 | 47 | 1020.0 |
| 20260510083722 | 49 | 19 | 2.6 | 3.5 | 0.00 | 0.00 | 0.00 | 46 | 1020.1 |
| 20260510083309 | 49 | 35 | 2.6 | 3.5 | 0.00 | 0.00 | 0.00 | 45 | 1020.2 |
| 20260510083020 | 48 | 5 | 1.7 | 3.5 | 0.00 | 0.00 | 0.00 | 46 | 1019.3 |
| 20260510082733 | 49 | 355 | 1.7 | 2.6 | 0.00 | 0.00 | 0.00 | 45 | 1020.0 |
| 20260510082243 | 49 | 355 | 1.7 | 1.7 | 0.00 | 0.00 | 0.00 | 45 | 1020.0 |
| 20260510081727 | 49 | 355 | 0.9 | 2.6 | 0.00 | 0.00 | 0.00 | 45 | 1020.0 |
| 20260510081532 | 49 | 355 | 0.9 | 2.6 | 0.00 | 0.00 | 0.00 | 45 | 1019.1 |
| 20260510081241 | 50 | 355 | 1.7 | 2.6 | 0.00 | 0.00 | 0.00 | 44 | 1020.0 |
| 20260510080722 | 50 | 355 | 1.7 | 3.5 | 0.00 | 0.00 | 0.00 | 45 | 1020.0 |
| 20260510080250 | 50 | 355 | 1.7 | 3.5 | 0.00 | 0.00 | 0.00 | 44 | 1020.0 |
| 20260510080002 | 50 | 355 | 1.7 | 3.5 | 0.00 | 0.00 | 0.00 | 44 | 1019.2 |
| 20260510075738 | 50 | 340 | 2.6 | 3.5 | 0.00 | 0.00 | 0.00 | 44 | 1020.0 |
| 20260510075249 | 50 | 340 | 2.6 | 3.5 | 0.00 | 0.00 | 0.00 | 44 | 1020.0 |
| 20260510074732 | 50 | 5 | 1.7 | 2.6 | 0.00 | 0.00 | 0.00 | 44 | 1019.9 |
| 20260510074512 | 50 | 5 | 0.9 | 4.3 | 0.00 | 0.00 | 0.00 | 44 | 1019.0 |
| 20260510074245 | 51 | 5 | 1.7 | 4.3 | 0.00 | 0.00 | 0.00 | 44 | 1019.8 |
| 20260510073725 | 51 | 5 | 2.6 | 4.3 | 0.00 | 0.00 | 0.00 | 44 | 1019.6 |
| 20260510073238 | 51 | 348 | 1.7 | 3.5 | 0.00 | 0.00 | 0.00 | 43 | 1019.7 |
| 20260510073015 | 51 | 349 | 0.9 | 2.6 | 0.00 | 0.00 | 0.00 | 43 | 1018.8 |
| 20260510072749 | 52 | 13 | 1.7 | 2.6 | 0.00 | 0.00 | 0.00 | 43 | 1019.5 |
| 20260510072226 | 52 | 13 | 1.7 | 2.6 | 0.00 | 0.00 | 0.00 | 42 | 1019.5 |
| 20260510071738 | 52 | 19 | 2.6 | 4.3 | 0.00 | 0.00 | 0.00 | 42 | 1019.5 |
| 20260510071519 | 52 | 19 | 1.7 | 4.3 | 0.00 | 0.00 | 0.00 | 42 | 1018.6 |
| 20260510071251 | 52 | 19 | 2.6 | 4.3 | 0.00 | 0.00 | 0.00 | 41 | 1019.4 |
| 20260510070741 | 53 | 12 | 2.6 | 2.6 | 0.00 | 0.00 | 0.00 | 41 | 1019.5 |
| 20260510070225 | 53 | 12 | 1.7 | 7.0 | 0.00 | 0.00 | 0.00 | 41 | 1019.4 |
| 20260510070056 | 52 | 12 | 1.7 | 7.0 | 0.00 | 0.00 | 0.00 | 41 | 1018.5 |
| 20260510065755 | 53 | 10 | 3.5 | 7.0 | 0.00 | 0.00 | 0.00 | 41 | 1019.4 |
| 20260510065245 | 53 | 5 | 3.5 | 7.8 | 0.00 | 0.00 | 0.00 | 41 | 1019.3 |
| 20260510064723 | 54 | 18 | 5.2 | 7.8 | 0.00 | 0.00 | 0.00 | 41 | 1019.2 |
| 20260510064531 | 53 | 9 | 3.5 | 7.8 | 0.00 | 0.00 | 0.00 | 41 | 1018.3 |
| 20260510064235 | 54 | 360 | 5.2 | 9.6 | 0.00 | 0.00 | 0.00 | 40 | 1019.2 |
| 20260510063806 | 54 | 360 | 6.1 | 10.4 | 0.00 | 0.00 | 0.00 | 40 | 1019.0 |
| 20260510063227 | 54 | 9 | 7.0 | 10.4 | 0.00 | 0.00 | 0.00 | 40 | 1019.1 |
| 20260510063010 | 54 | 351 | 7.8 | 10.4 | 0.00 | 0.00 | 0.00 | 39 | 1018.1 |
| 20260510062740 | 54 | 12 | 7.0 | 9.6 | 0.00 | 0.00 | 0.00 | 39 | 1019.1 |
| 20260510062223 | 55 | 355 | 7.0 | 8.7 | 0.00 | 0.00 | 0.00 | 39 | 1019.0 |
| 20260510061734 | 55 | 360 | 7.0 | 10.4 | 0.00 | 0.00 | 0.00 | 39 | 1019.1 |
| 20260510061556 | 54 | 344 | 6.1 | 10.4 | 0.00 | 0.00 | 0.00 | 39 | 1018.2 |
| 20260510061241 | 55 | 13 | 7.8 | 10.4 | 0.00 | 0.00 | 0.00 | 39 | 1019.0 |
| 20260510060750 | 55 | 5 | 7.0 | 8.7 | 0.00 | 0.00 | 0.00 | 40 | 1018.9 |
| 20260510060301 | 56 | 347 | 6.1 | 8.7 | 0.00 | 0.00 | 0.00 | 40 | 1018.6 |
| 20260510060008 | 55 | 360 | 5.2 | 8.7 | 0.00 | 0.00 | 0.00 | 40 | 1017.6 |
| 20260510055722 | 56 | 5 | 7.0 | 8.7 | 0.00 | 0.00 | 0.00 | 39 | 1018.5 |
| 20260510055234 | 56 | 5 | 7.0 | 8.7 | 0.00 | 0.00 | 0.00 | 39 | 1018.5 |
| 20260510054746 | 56 | 35 | 6.1 | 9.6 | 0.00 | 0.00 | 0.00 | 39 | 1018.3 |
| 20260510054552 | 56 | 360 | 6.1 | 10.4 | 0.00 | 0.00 | 0.00 | 39 | 1017.3 |
| 20260510054232 | 57 | 14 | 7.0 | 10.4 | 0.00 | 0.00 | 0.00 | 39 | 1018.0 |
| 20260510053741 | 57 | 355 | 7.8 | 10.4 | 0.00 | 0.00 | 0.00 | 39 | 1017.9 |
| 20260510053226 | 57 | 15 | 7.8 | 10.4 | 0.00 | 0.00 | 0.00 | 38 | 1017.8 |
| 20260510053059 | 56 | 12 | 7.0 | 10.4 | 0.00 | 0.00 | 0.00 | 38 | 1016.9 |
| 20260510052738 | 57 | 355 | 7.0 | 10.4 | 0.00 | 0.00 | 0.00 | 38 | 1017.8 |
| 20260510052249 | 57 | 22 | 7.0 | 9.6 | 0.00 | 0.00 | 0.00 | 38 | 1017.7 |
| 20260510051740 | 58 | 9 | 6.1 | 9.6 | 0.00 | 0.00 | 0.00 | 38 | 1017.5 |
| 20260510051546 | 57 | 13 | 6.1 | 9.6 | 0.00 | 0.00 | 0.00 | 38 | 1016.5 |
| 20260510051230 | 58 | 17 | 6.1 | 10.4 | 0.00 | 0.00 | 0.00 | 37 | 1017.5 |
| 20260510050741 | 58 | 5 | 7.0 | 10.4 | 0.00 | 0.00 | 0.00 | 37 | 1017.5 |
| 20260510050249 | 58 | 15 | 7.8 | 10.4 | 0.00 | 0.00 | 0.00 | 37 | 1017.4 |
| 20260510050013 | 58 | 5 | 7.0 | 13.0 | 0.00 | 0.00 | 0.00 | 37 | 1016.4 |
| 20260510045733 | 59 | 5 | 7.0 | 13.0 | 0.00 | 0.00 | 0.00 | 37 | 1017.4 |
| 20260510045244 | 59 | 19 | 7.8 | 13.0 | 0.00 | 0.00 | 0.00 | 37 | 1017.3 |
| 20260510044726 | 59 | 5 | 7.0 | 9.6 | 0.00 | 0.00 | 0.00 | 37 | 1017.3 |
| 20260510044520 | 59 | 17 | 6.1 | 9.6 | 0.00 | 0.00 | 0.00 | 37 | 1016.3 |
| 20260510044240 | 59 | 28 | 7.0 | 9.6 | 0.00 | 0.00 | 0.00 | 36 | 1017.3 |
| 20260510043810 | 60 | 20 | 7.0 | 9.6 | 0.00 | 0.00 | 0.00 | 36 | 1017.1 |
| 20260510043232 | 60 | 9 | 6.1 | 12.2 | 0.00 | 0.00 | 0.00 | 36 | 1017.0 |
| 20260510043100 | 59 | 17 | 5.2 | 12.2 | 0.00 | 0.00 | 0.00 | 36 | 1016.1 |
| 20260510042800 | 60 | 19 | 6.1 | 12.2 | 0.00 | 0.00 | 0.00 | 36 | 1017.0 |
| 20260510042223 | 60 | 9 | 7.8 | 13.9 | 0.00 | 0.00 | 0.00 | 36 | 1016.9 |
| 20260510041735 | 60 | 360 | 10.4 | 16.5 | 0.00 | 0.00 | 0.00 | 35 | 1016.8 |
| 20260510041536 | 60 | 13 | 10.4 | 16.5 | 0.00 | 0.00 | 0.00 | 35 | 1015.8 |
| 20260510041248 | 61 | 13 | 10.4 | 13.9 | 0.00 | 0.00 | 0.00 | 35 | 1016.6 |
| 20260510040739 | 61 | 21 | 8.7 | 12.2 | 0.00 | 0.00 | 0.00 | 36 | 1016.6 |
| 20260510040222 | 61 | 20 | 8.7 | 12.2 | 0.00 | 0.00 | 0.00 | 35 | 1016.4 |
| 20260510040015 | 61 | 28 | 7.8 | 13.9 | 0.00 | 0.00 | 0.00 | 36 | 1015.5 |
| 20260510035734 | 61 | 13 | 7.8 | 13.9 | 0.00 | 0.00 | 0.00 | 36 | 1016.4 |
| 20260510035241 | 61 | 5 | 8.7 | 13.9 | 0.00 | 0.00 | 0.00 | 35 | 1016.3 |
| 20260510034725 | 62 | 31 | 8.7 | 13.0 | 0.00 | 0.00 | 0.00 | 36 | 1016.3 |
| 20260510034509 | 61 | 11 | 8.7 | 13.0 | 0.00 | 0.00 | 0.00 | 35 | 1015.2 |
| 20260510034238 | 62 | 9 | 8.7 | 13.0 | 0.00 | 0.00 | 0.00 | 35 | 1016.2 |
| 20260510033748 | 62 | 25 | 8.7 | 12.2 | 0.00 | 0.00 | 0.00 | 35 | 1016.0 |
| 20260510033233 | 62 | 9 | 7.0 | 13.0 | 0.00 | 0.00 | 0.00 | 35 | 1015.9 |
| 20260510033012 | 62 | 360 | 8.7 | 13.0 | 0.00 | 0.00 | 0.00 | 35 | 1014.9 |
| 20260510032743 | 63 | 360 | 7.8 | 13.0 | 0.00 | 0.00 | 0.00 | 36 | 1015.8 |
| 20260510032226 | 63 | 360 | 7.8 | 11.3 | 0.00 | 0.00 | 0.00 | 36 | 1015.8 |
| 20260510031738 | 63 | 17 | 7.0 | 13.0 | 0.00 | 0.00 | 0.00 | 35 | 1015.7 |
| 20260510031517 | 62 | 37 | 7.8 | 13.9 | 0.00 | 0.00 | 0.00 | 35 | 1014.7 |
| 20260510031223 | 63 | 20 | 9.6 | 13.9 | 0.00 | 0.00 | 0.00 | 35 | 1015.6 |
| 20260510030728 | 63 | 360 | 9.6 | 13.9 | 0.00 | 0.00 | 0.00 | 35 | 1015.4 |
| 20260510030241 | 63 | 355 | 7.8 | 11.3 | 0.00 | 0.00 | 0.00 | 36 | 1015.3 |
| 20260510030018 | 63 | 26 | 7.8 | 11.3 | 0.00 | 0.00 | 0.00 | 35 | 1014.2 |
| 20260510025726 | 63 | 5 | 6.1 | 8.7 | 0.00 | 0.00 | 0.00 | 36 | 1015.2 |
| 20260510025237 | 64 | 12 | 3.5 | 7.8 | 0.00 | 0.00 | 0.00 | 36 | 1015.1 |
| 20260510024747 | 64 | 9 | 4.3 | 8.7 | 0.00 | 0.00 | 0.00 | 35 | 1015.0 |
| 20260510024532 | 63 | 28 | 4.3 | 9.6 | 0.00 | 0.00 | 0.00 | 35 | 1014.0 |
| 20260510024233 | 64 | 17 | 6.1 | 9.6 | 0.00 | 0.00 | 0.00 | 35 | 1014.9 |
| 20260510023744 | 64 | 355 | 6.1 | 9.6 | 0.00 | 0.00 | 0.00 | 34 | 1014.8 |
| 20260510023225 | 65 | 360 | 7.0 | 11.3 | 0.00 | 0.00 | 0.00 | 34 | 1014.7 |
| 20260510023022 | 64 | 360 | 7.0 | 11.3 | 0.00 | 0.00 | 0.00 | 34 | 1013.6 |
| 20260510022733 | 65 | 360 | 7.8 | 11.3 | 0.00 | 0.00 | 0.00 | 34 | 1014.6 |
| 20260510022306 | 66 | 360 | 7.0 | 10.4 | 0.00 | 0.00 | 0.00 | 33 | 1014.4 |
| 20260510021724 | 66 | 360 | 7.8 | 10.4 | 0.00 | 0.00 | 0.00 | 33 | 1014.3 |
| 20260510021502 | 66 | 355 | 7.0 | 11.3 | 0.00 | 0.00 | 0.00 | 33 | 1013.2 |
| 20260510021235 | 66 | 13 | 7.8 | 11.3 | 0.00 | 0.00 | 0.00 | 33 | 1014.2 |
| 20260510020746 | 67 | 11 | 8.7 | 13.9 | 0.00 | 0.00 | 0.00 | 33 | 1014.1 |
| 20260510020231 | 67 | 5 | 7.8 | 13.9 | 0.00 | 0.00 | 0.00 | 33 | 1014.0 |
| 20260510020004 | 66 | 355 | 9.6 | 13.9 | 0.00 | 0.00 | 0.00 | 33 | 1012.9 |
| 20260510015741 | 67 | 346 | 9.6 | 13.0 | 0.00 | 0.00 | 0.00 | 33 | 1013.9 |
| 20260510015248 | 67 | 18 | 9.6 | 12.2 | 0.00 | 0.00 | 0.00 | 34 | 1013.7 |
| 20260510014729 | 67 | 347 | 9.6 | 13.9 | 0.00 | 0.00 | 0.00 | 34 | 1013.6 |
| 20260510014546 | 67 | 355 | 9.6 | 13.9 | 0.00 | 0.00 | 0.00 | 35 | 1012.5 |
| 20260510014241 | 67 | 360 | 9.6 | 13.9 | 0.00 | 0.00 | 0.00 | 35 | 1013.5 |
| 20260510013752 | 68 | 345 | 8.7 | 16.5 | 0.00 | 0.00 | 0.00 | 35 | 1013.4 |
| 20260510013244 | 68 | 5 | 12.2 | 16.5 | 0.00 | 0.00 | 0.00 | 35 | 1013.2 |
| 20260510013020 | 67 | 360 | 9.6 | 13.9 | 0.00 | 0.00 | 0.00 | 35 | 1012.1 |
| 20260510012726 | 68 | 355 | 8.7 | 13.9 | 0.00 | 0.00 | 0.00 | 36 | 1013.2 |
| 20260510012238 | 68 | 5 | 9.6 | 14.8 | 0.00 | 0.00 | 0.00 | 37 | 1013.1 |
| 20260510011745 | 68 | 355 | 8.7 | 14.8 | 0.00 | 0.00 | 0.00 | 37 | 1013.0 |
| 20260510011556 | 68 | 27 | 9.6 | 14.8 | 0.00 | 0.00 | 0.00 | 37 | 1011.9 |
| 20260510011259 | 68 | 5 | 8.7 | 11.3 | 0.00 | 0.00 | 0.00 | 37 | 1012.9 |
| 20260510010747 | 68 | 5 | 7.8 | 12.2 | 0.00 | 0.00 | 0.00 | 37 | 1012.8 |
| 20260510010232 | 69 | 355 | 8.7 | 12.2 | 0.00 | 0.00 | 0.00 | 37 | 1012.8 |
| 20260510010040 | 68 | 5 | 7.8 | 12.2 | 0.00 | 0.00 | 0.00 | 37 | 1011.7 |
| 20260510005744 | 69 | 17 | 8.7 | 13.9 | 0.00 | 0.00 | 0.00 | 37 | 1012.8 |
| 20260510005227 | 69 | 13 | 10.4 | 13.9 | 0.00 | 0.00 | 0.00 | 37 | 1012.8 |
| 20260510004739 | 69 | 30 | 8.7 | 14.8 | 0.00 | 0.00 | 0.00 | 37 | 1012.6 |
| 20260510004544 | 69 | 360 | 9.6 | 14.8 | 0.00 | 0.00 | 0.00 | 37 | 1011.4 |
| 20260510004247 | 69 | 9 | 10.4 | 14.8 | 0.00 | 0.00 | 0.00 | 38 | 1012.4 |
| 20260510003730 | 69 | 40 | 9.6 | 13.0 | 0.00 | 0.00 | 0.00 | 38 | 1012.4 |
| 20260510003240 | 69 | 26 | 8.7 | 13.9 | 0.00 | 0.00 | 0.00 | 39 | 1012.3 |
| 20260510003049 | 69 | 29 | 8.7 | 13.9 | 0.00 | 0.00 | 0.00 | 39 | 1011.1 |
| 20260510002724 | 70 | 5 | 10.4 | 15.6 | 0.00 | 0.00 | 0.00 | 40 | 1012.2 |
| 20260510002235 | 70 | 12 | 9.6 | 15.6 | 0.00 | 0.00 | 0.00 | 41 | 1012.1 |
| 20260510001747 | 70 | 360 | 10.4 | 14.8 | 0.00 | 0.00 | 0.00 | 42 | 1012.2 |
| 20260510001530 | 69 | 343 | 7.8 | 11.3 | 0.00 | 0.00 | 0.00 | 43 | 1011.1 |
| 20260510001239 | 70 | 344 | 8.7 | 11.3 | 0.00 | 0.00 | 0.00 | 42 | 1012.2 |
| 20260510000722 | 70 | 355 | 7.8 | 13.0 | 0.00 | 0.00 | 0.00 | 43 | 1012.2 |
| 20260510000229 | 70 | 355 | 9.6 | 14.8 | 0.00 | 0.00 | 0.00 | 43 | 1012.2 |
| 20260510000041 | 69 | 343 | 7.8 | 14.8 | 0.00 | 0.00 | 0.00 | 43 | 1011.1 |
| 20260509235741 | 70 | 13 | 11.3 | 14.8 | 0.00 | 0.00 | 0.00 | 42 | 1012.3 |
| 20260509235223 | 70 | 355 | 10.4 | 14.8 | 0.00 | 0.00 | 0.00 | 42 | 1012.3 |
| 20260509234737 | 70 | 340 | 10.4 | 16.5 | 0.00 | 0.00 | 0.00 | 42 | 1012.3 |
| 20260509234546 | 69 | 5 | 8.7 | 17.4 | 0.00 | 0.00 | 0.00 | 42 | 1011.2 |
| 20260509234249 | 70 | 11 | 10.4 | 17.4 | 0.00 | 0.00 | 0.00 | 42 | 1012.3 |
| 20260509233732 | 70 | 27 | 13.0 | 17.4 | 0.00 | 0.00 | 0.00 | 42 | 1012.2 |
| 20260509233242 | 70 | 355 | 12.2 | 17.4 | 0.00 | 0.00 | 0.00 | 42 | 1012.1 |
| 20260509233048 | 70 | 355 | 12.2 | 17.4 | 0.00 | 0.00 | 0.00 | 43 | 1011.0 |
| 20260509232725 | 70 | 340 | 11.3 | 18.2 | 0.00 | 0.00 | 0.00 | 43 | 1012.2 |
| 20260509232234 | 70 | 355 | 10.4 | 20.9 | 0.00 | 0.00 | 0.00 | 43 | 1012.2 |
| 20260509231804 | 70 | 350 | 14.8 | 20.9 | 0.00 | 0.00 | 0.00 | 42 | 1012.0 |
| 20260509231532 | 70 | 17 | 14.8 | 20.9 | 0.00 | 0.00 | 0.00 | 42 | 1010.8 |
| 20260509231230 | 71 | 325 | 13.0 | 20.9 | 0.00 | 0.00 | 0.00 | 42 | 1012.0 |
| 20260509230737 | 71 | 5 | 16.5 | 20.9 | 0.00 | 0.00 | 0.00 | 42 | 1011.8 |
| 20260509230308 | 71 | 355 | 13.0 | 20.0 | 0.00 | 0.00 | 0.00 | 42 | 1011.9 |
| 20260509230012 | 70 | 13 | 14.8 | 20.0 | 0.00 | 0.00 | 0.00 | 42 | 1010.7 |
| 20260509225729 | 71 | 360 | 14.8 | 22.6 | 0.00 | 0.00 | 0.00 | 43 | 1011.8 |
| 20260509225257 | 71 | 355 | 15.6 | 24.3 | 0.00 | 0.00 | 0.00 | 43 | 1011.8 |
| 20260509224722 | 71 | 346 | 17.4 | 24.3 | 0.00 | 0.00 | 0.00 | 42 | 1011.8 |
| 20260509224547 | 71 | 349 | 15.6 | 22.6 | 0.00 | 0.00 | 0.00 | 43 | 1010.5 |
| 20260509224234 | 72 | 355 | 14.8 | 22.6 | 0.00 | 0.00 | 0.00 | 42 | 1011.7 |
| 20260509223746 | 72 | 360 | 14.8 | 20.9 | 0.00 | 0.00 | 0.00 | 42 | 1011.6 |
| 20260509223231 | 72 | 15 | 10.4 | 19.1 | 0.00 | 0.00 | 0.00 | 42 | 1011.6 |
| 20260509223052 | 72 | 348 | 11.3 | 19.1 | 0.00 | 0.00 | 0.00 | 41 | 1010.5 |
| 20260509222803 | 73 | 360 | 13.9 | 19.1 | 0.00 | 0.00 | 0.00 | 41 | 1011.6 |
| 20260509222224 | 73 | 355 | 13.0 | 18.2 | 0.00 | 0.00 | 0.00 | 41 | 1011.6 |
| 20260509221753 | 74 | 339 | 13.0 | 20.9 | 0.00 | 0.00 | 0.00 | 40 | 1011.6 |
| 20260509221510 | 73 | 24 | 13.0 | 20.9 | 0.00 | 0.00 | 0.00 | 40 | 1010.4 |
| 20260509221245 | 73 | 9 | 13.0 | 20.9 | 0.00 | 0.00 | 0.00 | 42 | 1011.6 |
| 20260509220734 | 72 | 355 | 14.8 | 20.0 | 0.00 | 0.00 | 0.00 | 41 | 1011.5 |
| 20260509220245 | 72 | 360 | 12.2 | 20.9 | 0.00 | 0.00 | 0.00 | 41 | 1011.4 |
| 20260509220029 | 71 | 343 | 12.2 | 20.9 | 0.00 | 0.00 | 0.00 | 42 | 1010.3 |
| 20260509215728 | 72 | 355 | 14.8 | 20.9 | 0.00 | 0.00 | 0.00 | 41 | 1011.4 |
| 20260509215242 | 72 | 34 | 15.6 | 20.9 | 0.00 | 0.00 | 0.00 | 40 | 1011.4 |
| 20260509214721 | 71 | 18 | 15.6 | 20.0 | 0.00 | 0.00 | 0.00 | 40 | 1011.2 |
| 20260509214535 | 71 | 328 | 13.0 | 20.0 | 0.00 | 0.00 | 0.00 | 40 | 1010.2 |
| 20260509214251 | 71 | 355 | 13.9 | 20.0 | 0.00 | 0.00 | 0.00 | 39 | 1011.3 |
| 20260509213733 | 72 | 360 | 12.2 | 18.2 | 0.00 | 0.00 | 0.00 | 39 | 1011.2 |
| 20260509213245 | 72 | 333 | 12.2 | 20.9 | 0.00 | 0.00 | 0.00 | 39 | 1011.2 |
| 20260509213034 | 71 | 355 | 12.2 | 20.9 | 0.00 | 0.00 | 0.00 | 38 | 1010.0 |
| 20260509212728 | 72 | 360 | 14.8 | 20.0 | 0.00 | 0.00 | 0.00 | 37 | 1011.1 |
| 20260509212239 | 72 | 19 | 14.8 | 20.0 | 0.00 | 0.00 | 0.00 | 37 | 1011.0 |
| 20260509211723 | 72 | 15 | 15.6 | 24.3 | 0.00 | 0.00 | 0.00 | 37 | 1010.9 |
| 20260509211546 | 72 | 344 | 14.8 | 24.3 | 0.00 | 0.00 | 0.00 | 37 | 1009.7 |
| 20260509211237 | 73 | 355 | 18.2 | 24.3 | 0.00 | 0.00 | 0.00 | 37 | 1010.8 |
| 20260509210802 | 73 | 9 | 14.8 | 20.9 | 0.00 | 0.00 | 0.00 | 37 | 1010.8 |
| 20260509210223 | 73 | 346 | 13.9 | 26.9 | 0.00 | 0.00 | 0.00 | 38 | 1010.8 |
| 20260509210029 | 72 | 345 | 14.8 | 26.9 | 0.00 | 0.00 | 0.00 | 38 | 1009.5 |
| 20260509205736 | 73 | 355 | 17.4 | 26.9 | 0.00 | 0.00 | 0.00 | 37 | 1010.6 |
| 20260509205247 | 74 | 355 | 19.1 | 26.1 | 0.00 | 0.00 | 0.00 | 36 | 1010.4 |
| 20260509204730 | 75 | 360 | 16.5 | 20.9 | 0.00 | 0.00 | 0.00 | 34 | 1010.3 |
| 20260509204532 | 75 | 348 | 16.5 | 20.9 | 0.00 | 0.00 | 0.00 | 34 | 1009.1 |
| 20260509204244 | 76 | 347 | 16.5 | 21.7 | 0.00 | 0.00 | 0.00 | 32 | 1010.2 |
| 20260509203727 | 76 | 5 | 14.8 | 21.7 | 0.00 | 0.00 | 0.00 | 31 | 1010.2 |
| 20260509203240 | 77 | 13 | 12.2 | 19.1 | 0.00 | 0.00 | 0.00 | 30 | 1010.0 |
| 20260509203032 | 77 | 39 | 13.0 | 19.1 | 0.00 | 0.00 | 0.00 | 29 | 1009.0 |
| 20260509202747 | 78 | 342 | 13.0 | 19.1 | 0.00 | 0.00 | 0.00 | 28 | 1010.1 |
| 20260509202231 | 79 | 360 | 11.3 | 17.4 | 0.00 | 0.00 | 0.00 | 29 | 1009.9 |
| 20260509201740 | 79 | 355 | 13.9 | 19.1 | 0.00 | 0.00 | 0.00 | 27 | 1009.9 |
| 20260509201526 | 78 | 10 | 10.4 | 19.1 | 0.00 | 0.00 | 0.00 | 28 | 1008.7 |
| 20260509201224 | 80 | 15 | 14.8 | 19.1 | 0.00 | 0.00 | 0.00 | 26 | 1009.8 |
| 20260509200735 | 80 | 319 | 7.0 | 15.6 | 0.00 | 0.00 | 0.00 | 27 | 1009.7 |
| 20260509200308 | 80 | 360 | 8.7 | 15.6 | 0.00 | 0.00 | 0.00 | 24 | 1009.8 |
| 20260509200012 | 80 | 339 | 7.8 | 15.6 | 0.00 | 0.00 | 0.00 | 27 | 1008.6 |
| 20260509195730 | 79 | 325 | 3.5 | 14.8 | 0.00 | 0.00 | 0.00 | 26 | 1009.8 |
| 20260509195234 | 79 | 355 | 8.7 | 16.5 | 0.00 | 0.00 | 0.00 | 27 | 1009.8 |
| 20260509194746 | 80 | 342 | 7.0 | 16.5 | 0.00 | 0.00 | 0.00 | 25 | 1009.7 |
| 20260509194522 | 79 | 41 | 6.1 | 13.9 | 0.00 | 0.00 | 0.00 | 26 | 1008.5 |
| 20260509194231 | 80 | 334 | 10.4 | 13.9 | 0.00 | 0.00 | 0.00 | 26 | 1009.7 |
| 20260509193738 | 79 | 9 | 7.0 | 13.9 | 0.00 | 0.00 | 0.00 | 26 | 1009.7 |
| 20260509193224 | 79 | 315 | 7.8 | 13.9 | 0.00 | 0.00 | 0.00 | 27 | 1009.7 |
| 20260509193026 | 80 | 329 | 6.1 | 12.2 | 0.00 | 0.00 | 0.00 | 29 | 1008.5 |
| 20260509192734 | 80 | 313 | 7.8 | 12.2 | 0.00 | 0.00 | 0.00 | 26 | 1009.7 |
| 20260509192243 | 80 | 355 | 8.7 | 12.2 | 0.00 | 0.00 | 0.00 | 26 | 1009.7 |
| 20260509191731 | 79 | 5 | 5.2 | 12.2 | 0.00 | 0.00 | 0.00 | 25 | 1009.6 |
| 20260509191506 | 79 | 24 | 5.2 | 12.2 | 0.00 | 0.00 | 0.00 | 25 | 1008.4 |
| 20260509191240 | 80 | 5 | 7.0 | 12.2 | 0.00 | 0.00 | 0.00 | 24 | 1009.6 |
| 20260509190722 | 78 | 32 | 4.3 | 11.3 | 0.00 | 0.00 | 0.00 | 29 | 1009.6 |
| 20260509190232 | 77 | 306 | 5.2 | 11.3 | 0.00 | 0.00 | 0.00 | 28 | 1009.6 |
| 20260509190009 | 77 | 343 | 3.5 | 13.9 | 0.00 | 0.00 | 0.00 | 27 | 1008.5 |
| 20260509185744 | 77 | 314 | 6.1 | 13.9 | 0.00 | 0.00 | 0.00 | 27 | 1009.7 |
| 20260509185227 | 78 | 355 | 8.7 | 13.9 | 0.00 | 0.00 | 0.00 | 25 | 1009.7 |
| 20260509184740 | 77 | 12 | 4.3 | 14.8 | 0.00 | 0.00 | 0.00 | 27 | 1009.8 |
| 20260509184520 | 77 | 355 | 5.2 | 14.8 | 0.00 | 0.00 | 0.00 | 27 | 1008.6 |
| 20260509184224 | 77 | 323 | 8.7 | 14.8 | 0.00 | 0.00 | 0.00 | 27 | 1009.7 |
| 20260509183734 | 78 | 341 | 9.6 | 15.6 | 0.00 | 0.00 | 0.00 | 27 | 1009.8 |
| 20260509183241 | 78 | 328 | 10.4 | 17.4 | 0.00 | 0.00 | 0.00 | 27 | 1009.8 |